千帆星座-186(QIANFAN-186)

导读

QIANFAN-186(NORAD编号69404)是中国千帆(G60星链)低轨互联网星座的组网卫星,于2026年6月4日随长征六号改运载火箭从太原卫星发射中心升空,属于中国第11批千帆极轨卫星组,为长征系列火箭第648次飞行任务。该卫星由上海垣信主导的G60科创走廊项目推进,单星重不足100公斤,搭载KA/KU双频段通信载荷与星间激光链路,通信延迟低于50毫秒,将服务全球宽带接入、应急通信、物联网及国防安全需求,是千帆星座一期1296颗卫星组网规划的重要组成部分。

基本信息
目录编号:
69404
目录名称:
QIANFAN-186
国际标识:
2026-125D
轨道中心:
EARTH
卫星名称:
千帆星座-186
卫星全名:
千帆星座-186(QIANFAN-186)
卫星状态:
在轨 (已飞行98 天)
发射日期:
2026-06-05 UTC
国别 :
中国 (CN)
星等 :
--
该卫星已列入 空间交会检测服务 Space Conjunction Data Service (SCDS) ,当前飞行风险评估等级: 无高风险
轨道信息
数据来源 国际轨道数据 AOE轨道数据
星历时间 2026-09-11T14:36:24+0800
9小时前
查看轨道信息
2026-09-10T23:00:00+0800
1天前
查看轨道信息
半长轴 7446.689km 7446.686km
偏心率 0.0001972 0.0001962
轨道倾角 88.989° 88.988°
近地点辐角 95.939° 95.551°
升交点赤经 271.273° 271.340°
平近点角 264.199° 343.757°
近地点 1067.083km 1067.087km
远地点 1070.021km 1070.011km
周期 106.587分钟 106.587分钟
每日圈数 13.510081 13.51009
详细信息
卫星平台:
186
覆盖范围:
全球
运营商:
上海垣信卫星科技有限公司
运营商所在国:
中国
使用方式:
暂无
卫星简介
千帆星座,也被称为“G60星链”计划,是中国版“星链”的重要组成部分,旨在打造一个由1.4万多颗低轨宽频多媒体卫星构成的庞大星座。千帆星座计划由上海垣信卫星科技有限公司负责实施,于2023年启动建设。该项目是我国第二个低轨卫星大星座,旨在通过构建庞大的卫星网络,为全球用户提供高质量的通信和宽带互联网服务。
2D轨道图
3D轨道图
轨道高度分析图
轨道倾角分析图
轨道综合分析图
查看轨道综合分析图
交会数据列表
事件ID 空间交会对象 最接近时刻(TCA) 交会距离 交会风险概率(CRP) 交会风险指数(CRI) 操作
CDM_260907-042406-603406-940423
2026-09-07T
04:24:28+0000
0.319 km
远距离
4.395041E-4 高风险 0.88
CDM_260907-023706-603406-940423
2026-09-07T
02:37:49+0000
0.399 km
远距离
3.018735E-4 高风险 0.85
CDM_260907-005106-603406-940423
2026-09-07T
00:51:10+0000
0.479 km
远距离
2.075076E-4 高风险 0.81
CDM_260906-230406-603406-940423
2026-09-06T
23:04:31+0000
0.560 km
远距离
1.437346E-4 高风险 0.78
CDM_260906-211706-603406-940424
2026-09-06T
21:17:52+0000
0.640 km
远距离
1.005844E-4 高风险 0.75
CDM_260906-193106-603406-940424
2026-09-06T
19:31:13+0000
0.721 km
远距离
7.12944E-5 中风险 0.72
CDM_260906-051806-603406-940423
2026-09-06T
05:18:01+0000
1.349 km
极远距离
8.69698E-6 低风险 0.54
CDM_260906-033106-603406-940423
2026-09-06T
03:31:22+0000
1.429 km
极远距离
7.158816E-6 低风险 0.52
CDM_260907-033106-603406-940423
2026-09-07T
03:31:08+0000
1.464 km
极远距离
6.612813E-6 低风险 0.51
CDM_260906-014406-603406-940423
2026-09-06T
01:44:43+0000
1.508 km
极远距离
5.982555E-6 低风险 0.51
与全量物体交会距离演化趋势
与全量物体交会风险概率演化趋势